Regional Weather Roundup
Issued by NWS Little Rock, AR

Home | Current Version | Previous Version | Graphics & Text | Print | Product List | Glossary On
Versions: 1 2 3 4 5 6 7 8 9 10 11 12 13 14 15 16 17 18 19 20 21 22 23 24 25 26 27 28 29 30 31 32 33 34 35 36 37 38 39 40 41 42 43 44 45 46 47 48 49 50
000
ASUS44 KLZK 242305
RWRLZK

WEATHER ROUNDUP FOR ARKANSAS
NATIONAL WEATHER SERVICE LITTLE ROCK AR
600 PM CDT FRI MAR 24 2017

NOTE: "FAIR" INDICATES FEW OR NO CLOUDS BELOW 12,000 FEET WITH NO
SIGNIFICANT WEATHER AND/OR OBSTRUCTIONS TO VISIBILITY.

ARZ001-003-010-029-250000-
NORTHWEST ARKANSAS

CITY           SKY/WX    TMP DP  RH WIND       PRES   REMARKS
FAYETTEVILLE   CLOUDY    59  57  93 VRB3      29.83F
FORT SMITH     LGT RAIN  63  60  90 E6        29.79F
HARRISON       HVY RAIN  63  58  83 S14       29.91R
BENTONVILLE    CLOUDY    59  55  88 SE13G21   29.85R
ROGERS         LGT RAIN  59  58  96 SE12      29.86R
SILOAM SPGS    CLOUDY    61  55  82 SE16      29.81F
HIGHFILL       RAIN      60  58  92 SE20      29.82F FOG
SPRINGDALE     CLOUDY    59  59 100 SE6G15    29.86F
$$

ARZ004-005-016-250000-
NORTH CENTRAL ARKANSAS

CITY           SKY/WX    TMP DP  RH WIND       PRES   REMARKS
BATESVILLE     MOSUNNY   75  55  50 S16G22    29.93F
FLIPPIN        CLOUDY    73  50  43 S12G22    29.87S
MTN HOME       CLOUDY    72  53  51 S12G23    29.90R
$$

ARZ040-041-250000-
WEST CENTRAL ARKANSAS

CITY           SKY/WX    TMP DP  RH WIND       PRES   REMARKS
MENA           CLOUDY    66  64  94 SE5G17    29.83F
MOUNT IDA      RAIN      66  61  84 SE7       29.84F
$$

ARZ009-017-025-026-028-250000-
NORTHEAST ARKANSAS

CITY           SKY/WX    TMP DP  RH WIND       PRES   REMARKS
CORNING        MOCLDY    75  59  57 S16G22    29.96F
JONESBORO      CLOUDY    75  57  53 S17       29.96F
NEWPORT        PTSUNNY   75  57  53 S25G31    29.94F
WALNUT RIDGE   MOSUNNY   73  57  56 S16       29.95F
BLYTHEVILLE    PTSUNNY   73  59  61 S14G21    29.98F
$$

ARZ022-023-033-042-044-250000-
CENTRAL ARKANSAS

CITY           SKY/WX    TMP DP  RH WIND       PRES   REMARKS
LITTLE ROCK    CLOUDY    75  58  55 S14G31    29.91F
JACKSONVILLE   CLOUDY    76  58  53 S12G22    29.90F
CONWAY           N/A     75  57  53 S15G23    29.88S
SEARCY         PTSUNNY   75  59  57 S21       29.93F
HOT SPRINGS    CLOUDY    75  57  53 S8        29.89S
RUSSELLVILLE   LGT RAIN  71  57  61 S9        29.87R
CLINTON        PTSUNNY   73  57  56 SE9G20    29.90R
$$

ARZ036-250000-
EAST ARKANSAS

CITY           SKY/WX    TMP DP  RH WIND       PRES   REMARKS
WEST MEMPHIS   CLOUDY    74  60  61 SE22G29   29.95F
$$

ARZ050-053-066-070-073-250000-
SOUTHWEST ARKANSAS

CITY           SKY/WX    TMP DP  RH WIND       PRES   REMARKS
ARKADELPHIA    MOCLDY    75  58  55 S10       29.90R
CAMDEN         PTSUNNY   75  57  53 S12G23    29.91R
TEXARKANA      TSTM      65  64  97 NW24      29.83F FOG
EL DORADO      CLOUDY    76  58  53 S18G33    29.91F
DE QUEEN       TSTM      63  63 100 W8        29.83S FOG
$$

ARZ056-057-069-250000-
SOUTHEAST ARKANSAS

CITY           SKY/WX    TMP DP  RH WIND       PRES   REMARKS
PINE BLUFF     MOSUNNY   76  57  51 S24G35    29.93F
STUTTGART      PTSUNNY  N/A N/A N/A S28       29.93F
MONTICELLO     CLOUDY    77  58  51 S17G24    29.94F

$$





USA.gov is the U.S. government's official web portal to all federal, state and local government web resources and services.